Year,Month,Day,Hour,Minute,Value (Times are PST for temperature in C)
2010,08,30,00,00,13.70
2010,08,30,00,01,13.70
2010,08,30,00,02,13.60
2010,08,30,00,03,13.60
2010,08,30,00,04,13.60
2010,08,30,00,05,13.60
2010,08,30,00,06,13.60
2010,08,30,00,07,13.60
2010,08,30,00,08,13.60
2010,08,30,00,09,13.60
2010,08,30,00,10,13.60
2010,08,30,00,11,13.60
2010,08,30,00,12,13.60
2010,08,30,00,13,13.60
2010,08,30,00,14,13.60
2010,08,30,00,15,13.60
2010,08,30,00,16,13.60
2010,08,30,00,17,13.60
2010,08,30,00,18,13.60
2010,08,30,00,19,13.60
2010,08,30,00,20,13.60
2010,08,30,00,21,13.60
2010,08,30,00,22,13.60
2010,08,30,00,23,13.60
2010,08,30,00,24,13.60
2010,08,30,00,25,13.60
2010,08,30,00,26,13.60
2010,08,30,00,27,13.60
2010,08,30,00,28,13.60
2010,08,30,00,29,13.60
2010,08,30,00,30,13.60
2010,08,30,00,31,13.60
2010,08,30,00,32,13.60
2010,08,30,00,33,13.50
2010,08,30,00,34,13.50
2010,08,30,00,35,13.50
2010,08,30,00,36,13.50
2010,08,30,00,37,13.50
2010,08,30,00,38,13.50
2010,08,30,00,39,13.50
2010,08,30,00,40,13.50
2010,08,30,00,41,13.50
2010,08,30,00,42,13.50
2010,08,30,00,43,13.50
2010,08,30,00,44,13.50
2010,08,30,00,45,13.50
2010,08,30,00,46,13.50
2010,08,30,00,47,13.50
2010,08,30,00,48,13.50
2010,08,30,00,49,13.50
2010,08,30,00,50,13.50
2010,08,30,00,51,13.50
2010,08,30,00,52,13.50
2010,08,30,00,53,13.50
2010,08,30,00,54,13.50
2010,08,30,00,55,13.40
2010,08,30,00,56,13.40
2010,08,30,00,57,13.40
2010,08,30,00,58,13.40
2010,08,30,00,59,13.40
2010,08,30,01,00,13.40
2010,08,30,01,01,13.40
2010,08,30,01,02,13.30
2010,08,30,01,03,13.30
2010,08,30,01,04,13.30
2010,08,30,01,05,13.30
2010,08,30,01,06,13.30
2010,08,30,01,07,13.30
2010,08,30,01,08,13.20
2010,08,30,01,09,13.20
2010,08,30,01,10,13.20
2010,08,30,01,11,13.20
2010,08,30,01,12,13.20
2010,08,30,01,13,13.20
2010,08,30,01,14,13.20
2010,08,30,01,15,13.20
2010,08,30,01,16,13.20
2010,08,30,01,17,13.20
2010,08,30,01,18,13.20
2010,08,30,01,19,13.20
2010,08,30,01,20,13.30
2010,08,30,01,21,13.30
2010,08,30,01,22,13.30
2010,08,30,01,23,13.30
2010,08,30,01,24,13.30
2010,08,30,01,25,13.30
2010,08,30,01,26,13.30
2010,08,30,01,27,13.30
2010,08,30,01,28,13.30
2010,08,30,01,29,13.30
2010,08,30,01,30,13.30
2010,08,30,01,31,13.40
2010,08,30,01,32,13.40
2010,08,30,01,33,13.40
2010,08,30,01,34,13.40
2010,08,30,01,35,13.40
2010,08,30,01,36,13.40
2010,08,30,01,37,13.40
2010,08,30,01,38,13.40
2010,08,30,01,39,13.40
2010,08,30,01,40,13.40
2010,08,30,01,41,13.40
2010,08,30,01,42,13.40
2010,08,30,01,43,13.40
2010,08,30,01,44,13.40
2010,08,30,01,45,13.40
2010,08,30,01,46,13.40
2010,08,30,01,47,13.40
2010,08,30,01,48,13.40
2010,08,30,01,49,13.40
2010,08,30,01,50,13.40
2010,08,30,01,51,13.40
2010,08,30,01,52,13.40
2010,08,30,01,53,13.40
2010,08,30,01,54,13.40
2010,08,30,01,55,13.40
2010,08,30,01,56,13.40
2010,08,30,01,57,13.40
2010,08,30,01,58,13.40
2010,08,30,01,59,13.40
2010,08,30,02,00,13.40
2010,08,30,02,01,13.40
2010,08,30,02,02,13.40
2010,08,30,02,03,13.40
2010,08,30,02,04,13.40
2010,08,30,02,05,13.40
2010,08,30,02,06,13.40
2010,08,30,02,07,13.40
2010,08,30,02,08,13.50
2010,08,30,02,09,13.50
2010,08,30,02,10,13.50
2010,08,30,02,11,13.50
2010,08,30,02,12,13.50
2010,08,30,02,13,13.50
2010,08,30,02,14,13.50
2010,08,30,02,15,13.40
2010,08,30,02,16,13.40
2010,08,30,02,17,13.40
2010,08,30,02,18,13.40
2010,08,30,02,19,13.40
2010,08,30,02,20,13.40
2010,08,30,02,21,13.30
2010,08,30,02,22,13.30
2010,08,30,02,23,13.30
2010,08,30,02,24,13.30
2010,08,30,02,25,13.30
2010,08,30,02,26,13.30
2010,08,30,02,27,13.30
2010,08,30,02,28,13.30
2010,08,30,02,29,13.30
2010,08,30,02,30,13.30
2010,08,30,02,31,13.30
2010,08,30,02,32,13.30
2010,08,30,02,33,13.30
2010,08,30,02,34,13.20
2010,08,30,02,35,13.20
2010,08,30,02,36,13.20
2010,08,30,02,37,13.20
2010,08,30,02,38,13.20
2010,08,30,02,39,13.20
2010,08,30,02,40,13.20
2010,08,30,02,41,13.20
2010,08,30,02,42,13.20
2010,08,30,02,43,13.20
2010,08,30,02,44,13.20
2010,08,30,02,45,13.10
2010,08,30,02,46,13.10
2010,08,30,02,47,13.10
2010,08,30,02,48,13.10
2010,08,30,02,49,13.10
2010,08,30,02,50,13.10
2010,08,30,02,51,13.20
2010,08,30,02,52,13.20
2010,08,30,02,53,13.20
2010,08,30,02,54,13.20
2010,08,30,02,55,13.20
2010,08,30,02,56,13.20
2010,08,30,02,57,13.20
2010,08,30,02,58,13.20
2010,08,30,02,59,13.10
2010,08,30,03,00,13.10
2010,08,30,03,01,13.10
2010,08,30,03,02,13.10
2010,08,30,03,03,13.10
2010,08,30,03,04,13.10
2010,08,30,03,05,13.10
2010,08,30,03,06,13.00
2010,08,30,03,07,13.00
2010,08,30,03,08,13.00
2010,08,30,03,09,13.00
2010,08,30,03,10,12.90
2010,08,30,03,11,12.90
2010,08,30,03,12,12.90
2010,08,30,03,13,12.90
2010,08,30,03,14,12.90
2010,08,30,03,15,12.80
2010,08,30,03,16,12.80
2010,08,30,03,17,12.80
2010,08,30,03,18,12.80
2010,08,30,03,19,12.80
2010,08,30,03,20,12.70
2010,08,30,03,21,12.70
2010,08,30,03,22,12.70
2010,08,30,03,23,12.60
2010,08,30,03,24,12.60
2010,08,30,03,25,12.60
2010,08,30,03,26,12.60
2010,08,30,03,27,12.60
2010,08,30,03,28,12.60
2010,08,30,03,29,12.60
2010,08,30,03,30,12.50
2010,08,30,03,31,12.50
2010,08,30,03,32,12.50
2010,08,30,03,33,12.40
2010,08,30,03,34,12.40
2010,08,30,03,35,12.40
2010,08,30,03,36,12.40
2010,08,30,03,37,12.30
2010,08,30,03,38,12.30
2010,08,30,03,39,12.30
2010,08,30,03,40,12.30
2010,08,30,03,41,12.30
2010,08,30,03,42,12.30
2010,08,30,03,43,12.20
2010,08,30,03,44,12.20
2010,08,30,03,45,12.20
2010,08,30,03,46,12.20
2010,08,30,03,47,12.20
2010,08,30,03,48,12.20
2010,08,30,03,49,12.20
2010,08,30,03,50,12.20
2010,08,30,03,51,12.20
2010,08,30,03,52,12.20
2010,08,30,03,53,12.20
2010,08,30,03,54,12.20
2010,08,30,03,55,12.20
2010,08,30,03,56,12.20
2010,08,30,03,57,12.20
2010,08,30,03,58,12.20
2010,08,30,03,59,12.10
2010,08,30,04,00,12.10
2010,08,30,04,01,12.10
2010,08,30,04,02,12.10
2010,08,30,04,03,12.10
2010,08,30,04,04,12.10
2010,08,30,04,05,12.10
2010,08,30,04,06,12.10
2010,08,30,04,07,12.10
2010,08,30,04,08,12.10
2010,08,30,04,09,12.10
2010,08,30,04,10,12.10
2010,08,30,04,11,12.00
2010,08,30,04,12,12.00
2010,08,30,04,13,12.00
2010,08,30,04,14,12.00
2010,08,30,04,15,11.90
2010,08,30,04,16,11.90
2010,08,30,04,17,11.90
2010,08,30,04,18,11.90
2010,08,30,04,19,11.90
2010,08,30,04,20,11.90
2010,08,30,04,21,11.80
2010,08,30,04,22,11.80
2010,08,30,04,23,11.80
2010,08,30,04,24,11.80
2010,08,30,04,25,11.80
2010,08,30,04,26,11.70
2010,08,30,04,27,11.70
2010,08,30,04,28,11.70
2010,08,30,04,29,11.70
2010,08,30,04,30,11.60
2010,08,30,04,31,11.60
2010,08,30,04,32,11.60
2010,08,30,04,33,11.60
2010,08,30,04,34,11.50
2010,08,30,04,35,11.50
2010,08,30,04,36,11.50
2010,08,30,04,37,11.40
2010,08,30,04,38,11.40
2010,08,30,04,39,11.40
2010,08,30,04,40,11.40
2010,08,30,04,41,11.30
2010,08,30,04,42,11.30
2010,08,30,04,43,11.30
2010,08,30,04,44,11.30
2010,08,30,04,45,11.20
2010,08,30,04,46,11.20
2010,08,30,04,47,11.20
2010,08,30,04,48,11.10
2010,08,30,04,49,11.10
2010,08,30,04,50,11.10
2010,08,30,04,51,11.00
2010,08,30,04,52,11.00
2010,08,30,04,53,10.90
2010,08,30,04,54,10.90
2010,08,30,04,55,10.90
2010,08,30,04,56,10.90
2010,08,30,04,57,10.80
2010,08,30,04,58,10.80
2010,08,30,04,59,10.80
2010,08,30,05,00,10.80
2010,08,30,05,01,10.80
2010,08,30,05,02,10.70
2010,08,30,05,03,10.70
2010,08,30,05,04,10.70
2010,08,30,05,05,10.60
2010,08,30,05,06,10.60
2010,08,30,05,07,10.60
2010,08,30,05,08,10.50
2010,08,30,05,09,10.50
2010,08,30,05,10,10.40
2010,08,30,05,11,10.40
2010,08,30,05,12,10.30
2010,08,30,05,13,10.30
2010,08,30,05,14,10.30
2010,08,30,05,15,10.20
2010,08,30,05,16,10.20
2010,08,30,05,17,10.20
2010,08,30,05,18,10.10
2010,08,30,05,19,10.10
2010,08,30,05,20,10.10
2010,08,30,05,21,10.10
2010,08,30,05,22,10.10
2010,08,30,05,23,10.10
2010,08,30,05,24,10.00
2010,08,30,05,25,10.00
2010,08,30,05,26,10.00
2010,08,30,05,27,9.90
2010,08,30,05,28,9.90
2010,08,30,05,29,9.90
2010,08,30,05,30,9.90
2010,08,30,05,31,9.90
2010,08,30,05,32,9.90
2010,08,30,05,33,9.90
2010,08,30,05,34,9.80
2010,08,30,05,35,9.80
2010,08,30,05,36,9.80
2010,08,30,05,37,9.80
2010,08,30,05,38,9.70
2010,08,30,05,39,9.70
2010,08,30,05,40,9.70
2010,08,30,05,41,9.70
2010,08,30,05,42,9.70
2010,08,30,05,43,9.70
2010,08,30,05,44,9.70
2010,08,30,05,45,9.70
2010,08,30,05,46,9.70
2010,08,30,05,47,9.70
2010,08,30,05,48,9.70
2010,08,30,05,49,9.70
2010,08,30,05,50,9.70
2010,08,30,05,51,9.70
2010,08,30,05,52,9.70
2010,08,30,05,53,9.70
2010,08,30,05,54,9.70
2010,08,30,05,55,9.60
2010,08,30,05,56,9.60
2010,08,30,05,57,9.60
2010,08,30,05,58,9.60
2010,08,30,05,59,9.50
2010,08,30,06,00,9.50
2010,08,30,06,01,9.50
2010,08,30,06,02,9.50
2010,08,30,06,03,9.40
2010,08,30,06,04,9.40
2010,08,30,06,05,9.40
2010,08,30,06,06,9.40
2010,08,30,06,07,9.30
2010,08,30,06,08,9.30
2010,08,30,06,09,9.30
2010,08,30,06,10,9.20
2010,08,30,06,11,9.20
2010,08,30,06,12,9.10
2010,08,30,06,13,9.10
2010,08,30,06,14,9.00
2010,08,30,06,15,9.00
2010,08,30,06,16,9.00
2010,08,30,06,17,8.90
2010,08,30,06,18,8.90
2010,08,30,06,19,8.90
2010,08,30,06,20,8.90
2010,08,30,06,21,8.90
2010,08,30,06,22,8.80
2010,08,30,06,23,8.80
2010,08,30,06,24,8.80
2010,08,30,06,25,8.80
2010,08,30,06,26,8.80
2010,08,30,06,27,8.80
2010,08,30,06,28,8.80
2010,08,30,06,29,8.80
2010,08,30,06,30,8.80
2010,08,30,06,31,8.80
2010,08,30,06,32,8.80
2010,08,30,06,33,8.80
2010,08,30,06,34,8.80
2010,08,30,06,35,8.80
2010,08,30,06,36,8.80
2010,08,30,06,37,8.80
2010,08,30,06,38,8.90
2010,08,30,06,39,8.90
2010,08,30,06,40,8.90
2010,08,30,06,41,8.90
2010,08,30,06,42,8.90
2010,08,30,06,43,8.80
2010,08,30,06,44,8.80
2010,08,30,06,45,8.80
2010,08,30,06,46,8.80
2010,08,30,06,47,8.80
2010,08,30,06,48,8.80
2010,08,30,06,49,8.80
2010,08,30,06,50,8.80
2010,08,30,06,51,8.80
2010,08,30,06,52,8.80
2010,08,30,06,53,8.80
2010,08,30,06,54,8.90
2010,08,30,06,55,8.90
2010,08,30,06,56,8.90
2010,08,30,06,57,8.90
2010,08,30,06,58,8.90
2010,08,30,06,59,8.80
2010,08,30,07,00,8.80
2010,08,30,07,01,8.90
2010,08,30,07,02,8.90
2010,08,30,07,03,8.90
2010,08,30,07,04,8.90
2010,08,30,07,05,8.90
2010,08,30,07,06,8.90
2010,08,30,07,07,8.90
2010,08,30,07,08,8.90
2010,08,30,07,09,9.00
2010,08,30,07,10,9.00
2010,08,30,07,11,9.00
2010,08,30,07,12,9.00
2010,08,30,07,13,9.00
2010,08,30,07,14,9.00
2010,08,30,07,15,9.00
2010,08,30,07,16,9.00
2010,08,30,07,17,9.10
2010,08,30,07,18,9.10
2010,08,30,07,19,9.10
2010,08,30,07,20,9.10
2010,08,30,07,21,9.10
2010,08,30,07,22,9.10
2010,08,30,07,23,9.20
2010,08,30,07,24,9.20
2010,08,30,07,25,9.20
2010,08,30,07,26,9.30
2010,08,30,07,27,9.30
2010,08,30,07,28,9.40
2010,08,30,07,29,9.50
2010,08,30,07,30,9.60
2010,08,30,07,31,9.60
2010,08,30,07,32,9.70
2010,08,30,07,33,9.80
2010,08,30,07,34,9.80
2010,08,30,07,35,9.80
2010,08,30,07,36,9.90
2010,08,30,07,37,10.00
2010,08,30,07,38,10.00
2010,08,30,07,39,10.10
2010,08,30,07,40,10.20
2010,08,30,07,41,10.30
2010,08,30,07,42,10.40
2010,08,30,07,43,10.50
2010,08,30,07,44,10.60
2010,08,30,07,45,10.60
2010,08,30,07,46,10.70
2010,08,30,07,47,10.70
2010,08,30,07,48,10.80
2010,08,30,07,49,10.90
2010,08,30,07,50,10.90
2010,08,30,07,51,11.00
2010,08,30,07,52,11.10
2010,08,30,07,53,11.20
2010,08,30,07,54,11.30
2010,08,30,07,55,11.40
2010,08,30,07,56,11.40
2010,08,30,07,57,11.40
2010,08,30,07,58,11.40
2010,08,30,07,59,11.40
2010,08,30,08,00,11.30
2010,08,30,08,01,11.30
2010,08,30,08,02,11.30
2010,08,30,08,03,11.30
2010,08,30,08,04,11.30
2010,08,30,08,05,11.30
2010,08,30,08,06,11.40
2010,08,30,08,07,11.40
2010,08,30,08,08,11.50
2010,08,30,08,09,11.50
2010,08,30,08,10,11.60
2010,08,30,08,11,11.60
2010,08,30,08,12,11.70
2010,08,30,08,13,11.80
2010,08,30,08,14,11.80
2010,08,30,08,15,11.90
2010,08,30,08,16,12.10
2010,08,30,08,17,12.20
2010,08,30,08,18,12.30
2010,08,30,08,19,12.50
2010,08,30,08,20,12.60
2010,08,30,08,21,12.70
2010,08,30,08,22,12.90
2010,08,30,08,23,13.00
2010,08,30,08,24,13.10
2010,08,30,08,25,13.20
2010,08,30,08,26,13.30
2010,08,30,08,27,13.30
2010,08,30,08,28,13.40
2010,08,30,08,29,13.40
2010,08,30,08,30,13.50
2010,08,30,08,31,13.50
2010,08,30,08,32,13.60
2010,08,30,08,33,13.60
2010,08,30,08,34,13.60
2010,08,30,08,35,13.70
2010,08,30,08,36,13.70
2010,08,30,08,37,13.80
2010,08,30,08,38,13.80
2010,08,30,08,39,13.90
2010,08,30,08,40,14.00
2010,08,30,08,41,14.00
2010,08,30,08,42,14.10
2010,08,30,08,43,14.10
2010,08,30,08,44,14.20
2010,08,30,08,45,14.20
2010,08,30,08,46,14.30
2010,08,30,08,47,14.30
2010,08,30,08,48,14.40
2010,08,30,08,49,14.40
2010,08,30,08,50,14.50
2010,08,30,08,51,14.60
2010,08,30,08,52,14.70
2010,08,30,08,53,14.90
2010,08,30,08,54,15.00
2010,08,30,08,55,15.10
2010,08,30,08,56,15.30
2010,08,30,08,57,15.40
2010,08,30,08,58,15.60
2010,08,30,08,59,15.60
2010,08,30,09,00,15.70
2010,08,30,09,01,15.70
2010,08,30,09,02,15.70
2010,08,30,09,03,15.70
2010,08,30,09,04,15.60
2010,08,30,09,05,15.60
2010,08,30,09,06,15.60
2010,08,30,09,07,15.60
2010,08,30,09,08,15.60
2010,08,30,09,09,15.70
2010,08,30,09,10,15.70
2010,08,30,09,11,15.80
2010,08,30,09,12,15.80
2010,08,30,09,13,15.80
2010,08,30,09,14,15.80
2010,08,30,09,15,15.80
2010,08,30,09,16,15.90
2010,08,30,09,17,15.90
2010,08,30,09,18,15.90
2010,08,30,09,19,15.90
2010,08,30,09,20,15.90
2010,08,30,09,21,15.90
2010,08,30,09,22,15.90
2010,08,30,09,23,16.00
2010,08,30,09,24,16.00
2010,08,30,09,25,16.10
2010,08,30,09,26,16.20
2010,08,30,09,27,16.20
2010,08,30,09,28,16.30
2010,08,30,09,29,16.40
2010,08,30,09,30,16.40
2010,08,30,09,31,16.50
2010,08,30,09,32,16.60
2010,08,30,09,33,16.60
2010,08,30,09,34,16.70
2010,08,30,09,35,16.70
2010,08,30,09,36,16.70
2010,08,30,09,37,16.80
2010,08,30,09,38,16.80
2010,08,30,09,39,16.80
2010,08,30,09,40,16.80
2010,08,30,09,41,16.80
2010,08,30,09,42,16.80
2010,08,30,09,43,16.70
2010,08,30,09,44,16.60
2010,08,30,09,45,16.50
2010,08,30,09,46,16.40
2010,08,30,09,47,16.30
2010,08,30,09,48,16.20
2010,08,30,09,49,16.20
2010,08,30,09,50,16.30
2010,08,30,09,51,16.30
2010,08,30,09,52,16.40
2010,08,30,09,53,16.50
2010,08,30,09,54,16.50
2010,08,30,09,55,16.60
2010,08,30,09,56,16.60
2010,08,30,09,57,16.70
2010,08,30,09,58,16.70
2010,08,30,09,59,16.60
2010,08,30,10,00,16.60
2010,08,30,10,01,16.60
2010,08,30,10,02,16.60
2010,08,30,10,03,16.70
2010,08,30,10,04,16.80
2010,08,30,10,05,16.80
2010,08,30,10,06,17.00
2010,08,30,10,07,17.00
2010,08,30,10,08,17.10
2010,08,30,10,09,17.20
2010,08,30,10,10,17.10
2010,08,30,10,11,17.20
2010,08,30,10,12,17.20
2010,08,30,10,13,17.20
2010,08,30,10,14,17.20
2010,08,30,10,15,17.10
2010,08,30,10,16,17.10
2010,08,30,10,17,17.00
2010,08,30,10,18,16.90
2010,08,30,10,19,16.90
2010,08,30,10,20,16.90
2010,08,30,10,21,17.00
2010,08,30,10,22,17.10
2010,08,30,10,23,17.20
2010,08,30,10,24,17.20
2010,08,30,10,25,17.30
2010,08,30,10,26,17.40
2010,08,30,10,27,17.50
2010,08,30,10,28,17.60
2010,08,30,10,29,17.70
2010,08,30,10,30,17.60
2010,08,30,10,31,17.60
2010,08,30,10,32,17.60
2010,08,30,10,33,17.60
2010,08,30,10,34,17.60
2010,08,30,10,35,17.50
2010,08,30,10,36,17.50
2010,08,30,10,37,17.50
2010,08,30,10,38,17.60
2010,08,30,10,39,17.60
2010,08,30,10,40,17.50
2010,08,30,10,41,17.50
2010,08,30,10,42,17.40
2010,08,30,10,43,17.30
2010,08,30,10,44,17.30
2010,08,30,10,45,17.30
2010,08,30,10,46,17.20
2010,08,30,10,47,17.20
2010,08,30,10,48,17.30
2010,08,30,10,49,17.30
2010,08,30,10,50,17.50
2010,08,30,10,51,17.60
2010,08,30,10,52,17.60
2010,08,30,10,53,17.70
2010,08,30,10,54,17.70
2010,08,30,10,55,17.60
2010,08,30,10,56,17.50
2010,08,30,10,57,17.40
2010,08,30,10,58,17.30
2010,08,30,10,59,17.30
2010,08,30,11,00,17.40
2010,08,30,11,01,17.40
2010,08,30,11,02,17.50
2010,08,30,11,03,17.50
2010,08,30,11,04,17.40
2010,08,30,11,05,17.40
2010,08,30,11,06,17.40
2010,08,30,11,07,17.40
2010,08,30,11,08,17.40
2010,08,30,11,09,17.40
2010,08,30,11,10,17.40
2010,08,30,11,11,17.50
2010,08,30,11,12,17.60
2010,08,30,11,13,17.70
2010,08,30,11,14,17.70
2010,08,30,11,15,17.80
2010,08,30,11,16,17.80
2010,08,30,11,17,17.80
2010,08,30,11,18,17.90
2010,08,30,11,19,17.90
2010,08,30,11,20,18.00
2010,08,30,11,21,17.90
2010,08,30,11,22,18.00
2010,08,30,11,23,18.10
2010,08,30,11,24,18.20
2010,08,30,11,25,18.20
2010,08,30,11,26,18.20
2010,08,30,11,27,18.20
2010,08,30,11,28,18.20
2010,08,30,11,29,18.20
2010,08,30,11,30,18.30
2010,08,30,11,31,18.30
2010,08,30,11,32,18.40
2010,08,30,11,33,18.40
2010,08,30,11,34,18.40
2010,08,30,11,35,18.30
2010,08,30,11,36,18.30
2010,08,30,11,37,18.40
2010,08,30,11,38,18.40
2010,08,30,11,39,18.50
2010,08,30,11,40,18.40
2010,08,30,11,41,18.40
2010,08,30,11,42,18.50
2010,08,30,11,43,18.60
2010,08,30,11,44,18.60
2010,08,30,11,45,18.70
2010,08,30,11,46,18.70
2010,08,30,11,47,18.90
2010,08,30,11,48,19.00
2010,08,30,11,49,19.10
2010,08,30,11,50,19.10
2010,08,30,11,51,19.00
2010,08,30,11,52,19.00
2010,08,30,11,53,18.90
2010,08,30,11,54,18.90
2010,08,30,11,55,18.90
2010,08,30,11,56,18.90
2010,08,30,11,57,18.90
2010,08,30,11,58,18.90
2010,08,30,11,59,18.70
2010,08,30,12,00,18.70
2010,08,30,12,01,18.70
2010,08,30,12,02,18.70
2010,08,30,12,03,18.80
2010,08,30,12,04,18.90
2010,08,30,12,05,18.90
2010,08,30,12,06,18.90
2010,08,30,12,07,18.80
2010,08,30,12,08,18.90
2010,08,30,12,09,18.80
2010,08,30,12,10,18.80
2010,08,30,12,11,18.80
2010,08,30,12,12,18.70
2010,08,30,12,13,18.70
2010,08,30,12,14,18.70
2010,08,30,12,15,18.70
2010,08,30,12,16,18.70
2010,08,30,12,17,18.70
2010,08,30,12,18,18.70
2010,08,30,12,19,18.80
2010,08,30,12,20,18.90
2010,08,30,12,21,18.90
2010,08,30,12,22,19.00
2010,08,30,12,23,19.00
2010,08,30,12,24,18.90
2010,08,30,12,25,18.80
2010,08,30,12,26,18.80
2010,08,30,12,27,18.80
2010,08,30,12,28,18.80
2010,08,30,12,29,18.80
2010,08,30,12,30,18.90
2010,08,30,12,31,19.00
2010,08,30,12,32,19.20
2010,08,30,12,33,19.30
2010,08,30,12,34,19.30
2010,08,30,12,35,19.40
2010,08,30,12,36,19.40
2010,08,30,12,37,19.40
2010,08,30,12,38,19.50
2010,08,30,12,39,19.40
2010,08,30,12,40,19.30
2010,08,30,12,41,19.10
2010,08,30,12,42,19.00
2010,08,30,12,43,19.00
2010,08,30,12,44,19.00
2010,08,30,12,45,19.10
2010,08,30,12,46,19.10
2010,08,30,12,47,19.10
2010,08,30,12,48,19.10
2010,08,30,12,49,19.00
2010,08,30,12,50,18.90
2010,08,30,12,51,18.80
2010,08,30,12,52,18.70
2010,08,30,12,53,18.80
2010,08,30,12,54,18.80
2010,08,30,12,55,18.90
2010,08,30,12,56,18.90
2010,08,30,12,57,18.90
2010,08,30,12,58,18.90
2010,08,30,12,59,18.90
2010,08,30,13,00,18.90
2010,08,30,13,01,18.90
2010,08,30,13,02,18.90
2010,08,30,13,03,18.90
2010,08,30,13,04,19.10
2010,08,30,13,05,19.20
2010,08,30,13,06,19.00
2010,08,30,13,07,18.80
2010,08,30,13,08,18.80
2010,08,30,13,09,18.90
2010,08,30,13,10,18.90
2010,08,30,13,11,18.80
2010,08,30,13,12,18.80
2010,08,30,13,13,18.70
2010,08,30,13,14,18.80
2010,08,30,13,15,18.90
2010,08,30,13,16,19.00
2010,08,30,13,17,19.20
2010,08,30,13,18,19.40
2010,08,30,13,19,19.40
2010,08,30,13,20,19.30
2010,08,30,13,21,19.30
2010,08,30,13,22,19.30
2010,08,30,13,23,19.40
2010,08,30,13,24,19.40
2010,08,30,13,25,19.40
2010,08,30,13,26,19.30
2010,08,30,13,27,19.30
2010,08,30,13,28,19.20
2010,08,30,13,29,19.20
2010,08,30,13,30,19.10
2010,08,30,13,31,19.00
2010,08,30,13,32,19.00
2010,08,30,13,33,19.10
2010,08,30,13,34,19.10
2010,08,30,13,35,19.20
2010,08,30,13,36,19.20
2010,08,30,13,37,19.20
2010,08,30,13,38,19.10
2010,08,30,13,39,19.10
2010,08,30,13,40,19.00
2010,08,30,13,41,18.90
2010,08,30,13,42,18.80
2010,08,30,13,43,18.80
2010,08,30,13,44,19.00
2010,08,30,13,45,19.10
2010,08,30,13,46,19.10
2010,08,30,13,47,19.00
2010,08,30,13,48,19.10
2010,08,30,13,49,19.10
2010,08,30,13,50,19.10
2010,08,30,13,51,19.10
2010,08,30,13,52,19.10
2010,08,30,13,53,19.10
2010,08,30,13,54,19.20
2010,08,30,13,55,19.30
2010,08,30,13,56,19.30
2010,08,30,13,57,19.30
2010,08,30,13,58,19.30
2010,08,30,13,59,19.30
2010,08,30,14,00,19.40
2010,08,30,14,01,19.40
2010,08,30,14,02,19.40
2010,08,30,14,03,19.30
2010,08,30,14,04,19.30
2010,08,30,14,05,19.20
2010,08,30,14,06,19.20
2010,08,30,14,07,19.30
2010,08,30,14,08,19.40
2010,08,30,14,09,19.40
2010,08,30,14,10,19.20
2010,08,30,14,11,19.20
2010,08,30,14,12,19.10
2010,08,30,14,13,19.20
2010,08,30,14,14,19.30
2010,08,30,14,15,19.50
2010,08,30,14,16,19.70
2010,08,30,14,17,19.80
2010,08,30,14,18,19.80
2010,08,30,14,19,19.70
2010,08,30,14,20,19.50
2010,08,30,14,21,19.40
2010,08,30,14,22,19.40
2010,08,30,14,23,19.40
2010,08,30,14,24,19.40
2010,08,30,14,25,19.40
2010,08,30,14,26,19.50
2010,08,30,14,27,19.60
2010,08,30,14,28,19.60
2010,08,30,14,29,19.60
2010,08,30,14,30,19.60
2010,08,30,14,31,19.60
2010,08,30,14,32,19.60
2010,08,30,14,33,19.70
2010,08,30,14,34,19.80
2010,08,30,14,35,20.00
2010,08,30,14,36,20.00
2010,08,30,14,37,20.00
2010,08,30,14,38,19.90
2010,08,30,14,39,19.90
2010,08,30,14,40,19.90
2010,08,30,14,41,19.90
2010,08,30,14,42,20.00
2010,08,30,14,43,20.10
2010,08,30,14,44,20.30
2010,08,30,14,45,20.30
2010,08,30,14,46,20.20
2010,08,30,14,47,20.20
2010,08,30,14,48,20.20
2010,08,30,14,49,20.30
2010,08,30,14,50,20.30
2010,08,30,14,51,20.30
2010,08,30,14,52,20.30
2010,08,30,14,53,20.20
2010,08,30,14,54,20.20
2010,08,30,14,55,20.20
2010,08,30,14,56,20.20
2010,08,30,14,57,20.20
2010,08,30,14,58,20.10
2010,08,30,14,59,20.10
2010,08,30,15,00,20.00
2010,08,30,15,01,20.00
2010,08,30,15,02,20.10
2010,08,30,15,03,20.20
2010,08,30,15,04,20.10
2010,08,30,15,05,20.20
2010,08,30,15,06,20.10
2010,08,30,15,07,20.00
2010,08,30,15,08,19.80
2010,08,30,15,09,19.80
2010,08,30,15,10,19.70
2010,08,30,15,11,19.70
2010,08,30,15,12,19.70
2010,08,30,15,13,19.90
2010,08,30,15,14,20.00
2010,08,30,15,15,20.00
2010,08,30,15,16,20.10
2010,08,30,15,17,20.10
2010,08,30,15,18,20.10
2010,08,30,15,19,20.00
2010,08,30,15,20,19.80
2010,08,30,15,21,19.70
2010,08,30,15,22,19.70
2010,08,30,15,23,19.70
2010,08,30,15,24,19.70
2010,08,30,15,25,19.70
2010,08,30,15,26,19.60
2010,08,30,15,27,19.60
2010,08,30,15,28,19.60
2010,08,30,15,29,19.60
2010,08,30,15,30,19.50
2010,08,30,15,31,19.50
2010,08,30,15,32,19.40
2010,08,30,15,33,19.40
2010,08,30,15,34,19.50
2010,08,30,15,35,19.60
2010,08,30,15,36,19.60
2010,08,30,15,37,19.70
2010,08,30,15,38,19.80
2010,08,30,15,39,19.90
2010,08,30,15,40,19.90
2010,08,30,15,41,19.80
2010,08,30,15,42,19.80
2010,08,30,15,43,19.80
2010,08,30,15,44,19.80
2010,08,30,15,45,19.80
2010,08,30,15,46,19.80
2010,08,30,15,47,19.80
2010,08,30,15,48,19.80
2010,08,30,15,49,19.70
2010,08,30,15,50,19.70
2010,08,30,15,51,19.80
2010,08,30,15,52,19.80
2010,08,30,15,53,19.80
2010,08,30,15,54,19.70
2010,08,30,15,55,19.70
2010,08,30,15,56,19.80
2010,08,30,15,57,19.90
2010,08,30,15,58,20.10
2010,08,30,15,59,20.20
2010,08,30,16,00,20.20
2010,08,30,16,01,20.10
2010,08,30,16,02,20.00
2010,08,30,16,03,19.90
2010,08,30,16,04,20.00
2010,08,30,16,05,20.00
2010,08,30,16,06,20.00
2010,08,30,16,07,20.00
2010,08,30,16,08,20.00
2010,08,30,16,09,19.90
2010,08,30,16,10,19.80
2010,08,30,16,11,19.80
2010,08,30,16,12,19.80
2010,08,30,16,13,19.80
2010,08,30,16,14,19.90
2010,08,30,16,15,20.00
2010,08,30,16,16,20.00
2010,08,30,16,17,20.20
2010,08,30,16,18,20.30
2010,08,30,16,19,20.40
2010,08,30,16,20,20.40
2010,08,30,16,21,20.30
2010,08,30,16,22,20.30
2010,08,30,16,23,20.20
2010,08,30,16,24,20.20
2010,08,30,16,25,20.20
2010,08,30,16,26,20.10
2010,08,30,16,27,20.00
2010,08,30,16,28,19.90
2010,08,30,16,29,20.00
2010,08,30,16,30,20.00
2010,08,30,16,31,20.20
2010,08,30,16,32,20.20
2010,08,30,16,33,20.20
2010,08,30,16,34,20.20
2010,08,30,16,35,20.10
2010,08,30,16,36,20.20
2010,08,30,16,37,20.10
2010,08,30,16,38,20.10
2010,08,30,16,39,20.10
2010,08,30,16,40,20.10
2010,08,30,16,41,20.10
2010,08,30,16,42,20.10
2010,08,30,16,43,20.10
2010,08,30,16,44,20.10
2010,08,30,16,45,20.20
2010,08,30,16,46,20.30
2010,08,30,16,47,20.50
2010,08,30,16,48,20.60
2010,08,30,16,49,20.60
2010,08,30,16,50,20.60
2010,08,30,16,51,20.70
2010,08,30,16,52,20.60
2010,08,30,16,53,20.60
2010,08,30,16,54,20.80
2010,08,30,16,55,20.80
2010,08,30,16,56,20.80
2010,08,30,16,57,20.90
2010,08,30,16,58,20.90
2010,08,30,16,59,20.80
2010,08,30,17,00,20.80
2010,08,30,17,01,20.80
2010,08,30,17,02,20.90
2010,08,30,17,03,20.90
2010,08,30,17,04,20.90
2010,08,30,17,05,20.90
2010,08,30,17,06,20.90
2010,08,30,17,07,20.90
2010,08,30,17,08,21.00
2010,08,30,17,09,21.00
2010,08,30,17,10,20.90
2010,08,30,17,11,20.90
2010,08,30,17,12,20.90
2010,08,30,17,13,20.80
2010,08,30,17,14,20.70
2010,08,30,17,15,20.70
2010,08,30,17,16,20.70
2010,08,30,17,17,20.70
2010,08,30,17,18,20.70
2010,08,30,17,19,20.70
2010,08,30,17,20,20.60
2010,08,30,17,21,20.40
2010,08,30,17,22,20.20
2010,08,30,17,23,20.20
2010,08,30,17,24,20.20
2010,08,30,17,25,20.20